Regional Weather Roundup
Issued by NWS New Orleans/Baton Rouge, LA

Home | Current Version | Previous Version | Graphics & Text | Print | Product List | Glossary On
Versions: 1 2 3 4 5 6 7 8 9 10 11 12 13 14 15 16 17 18 19 20 21 22 23 24 25 26 27 28 29 30 31 32 33 34 35 36 37 38 39 40 41 42 43 44 45 46 47 48 49 50
971
ASUS44 KLIX 221905
RWRLIX
NEW ORLEANS REGIONAL WEATHER ROUNDUP
NATIONAL WEATHER SERVICE NEW ORLEANS LA
200 PM CDT TUE APR 22 2014

NOTE: "FAIR" INDICATES FEW OR NO CLOUDS BELOW 12,000 FEET WITH NO
      SIGNIFICANT WEATHER AND/OR OBSTRUCTIONS TO VISIBILITY.
      SKY/WX - SKY CONDITION AND SIGNIFICANT WEATHER.
      TMP - AIR TEMPERATURE.     DP    - DEWPOINT TEMPERATURE.
      RH  - RELATIVE HUMIDITY.   PRES  - PRESSURE.
      HI  - HEAT INDEX.          WCI   - WIND CHILL INDEX.

*  THESE STATIONS ARE NOT NWS OR FAA STATIONS AND ARE NOT UNDER
   NWS QUALITY CONTROL.

LAZ038-040-048-061>063-065>067-069-222000-
SOUTHEAST LOUISIANA

CITY           SKY/WX    TMP DP  RH WIND       PRES   REMARKS
N.O. AUDUBON     N/A     73  65  77 MISG        N/A
N.O. INTL ARPT CLOUDY    72  65  78 NW13      29.95S
N.O. LAKEFRONT CLOUDY    71  66  84 W8        29.95F
N.O. DOWNTOWN* CLOUDY    73  63  68 NW5       29.95F
SLIDELL        PTSUNNY   73  65  75 SW8       29.93F
BATON ROUGE    CLOUDY    78  62  57 NW10      29.94F
BOOTHVILLE     CLOUDY    72  65  78 SW14      29.96F
BELLE CHASSE   LGT RAIN  72  63  73 W6        29.94F
BOGALUSA*        N/A     75  64  66 NW8G16    29.94F
GALLIANO*      CLOUDY    77  65  65 W9G17     29.95S
NEW ROADS*     MOCLDY    76  62  63 NW9       29.95F
GONZALES*      MOCLDY    75  67  76 W7        29.94F
HAMMOND*       PTSUNNY   81  59  47 NW10      29.94F
HOUMA*         PTSUNNY   73  64  73 SW12      29.96S
PORT FOURCHON* CLOUDY    73  66  78 W16       29.98S

$$

MSZ070-080>082-222000-
SOUTHERN MISSISSIPPI

CITY           SKY/WX    TMP DP  RH WIND       PRES   REMARKS
MCCOMB         CLOUDY    73  62  68 NW10      29.93F
GULFPORT       CLOUDY    75  64  68 NW12      29.93S
BILOXI         CLOUDY    74  64  70 SW9       29.92F
PASCAGOULA     MOSUNNY   78  65  63 SW10      29.91F
STENNIS ARPT*  PTSUNNY   72  63  73 W8        29.93F

$$

COASTAL OBSERVATIONS
LAKE AND NEARSHORE STATIONS

STATION/POSITION TIME  TEMP    WIND        PRES    WAVE
                       AIR SEA DIR/SP/G            HT/PER
                 (UTC) (F)     (DEG/KT/KT) (MB)    (FT/S)
PASCAGOULA       1900   72     240/ 12/ 15 1012.8
WAVELAND YACHT   1900   70 72  300/  6/ 10 1013.1
GRAND ISLE       1900   72 72  250/ 10/ 15 1014.9
SOUTHWEST PASS   1900   70 60  250/ 13/ 14 1015.1
NEW CANAL        1900   72 69  270/  4/  6 1014.5
SHELL BEACH      1900   71 67  290/  7/  9 1013.9

OFFSHORE STATIONS

STATION/POSITION TIME  TEMP    WIND        PRES    WAVE
                       AIR SEA DIR/SP/G            HT/PER
                 (UTC) (F)     (DEG/KT/KT) (MB)    (FT/S)
64 S DAUPHIN ISL 1756   68 72  260/  8/  8 1014.5

$$




USA.gov is the U.S. government's official web portal to all federal, state and local government web resources and services.